Regional Weather Roundup
Issued by NWS Cleveland, OH

Home | Current Version | Previous Version | Graphics & Text | Print | Product List | Glossary On
Versions: 1 2 3 4 5 6 7 8 9 10 11 12 13 14 15 16 17 18 19 20 21 22 23 24 25 26 27 28 29 30 31 32 33 34 35 36 37 38 39 40 41 42 43 44 45 46 47 48 49 50
460
ASUS41 KCLE 210500
RWRCLE
OHIO REGIONAL WEATHER ROUNDUP
NATIONAL WEATHER SERVICE WILMINGTON, OH
100 AM EDT SAT OCT 21 2017

NOTE: "FAIR" INDICATES FEW OR NO CLOUDS BELOW 12,000 FEET WITH NO
SIGNIFICANT WEATHER AND/OR OBSTRUCTIONS TO VISIBILITY.

OHZ001>008-015>018-024>027-034-035-043-044-210600-
   NORTHWEST OHIO

CITY           SKY/WX    TMP DP  RH WIND       PRES   REMARKS
DEFIANCE       FAIR      55  49  80 S3        30.16S
FINDLAY        FAIR      56  44  64 SE6       30.17F
TOLEDO EXPRESS FAIR      59  50  72 S7        30.16S
TOLEDO EXEC    FAIR      57  45  64 S8        30.18S
LIMA           FAIR      55  50  83 S6        30.18S
$$

OHZ009>014-019>023-028>033-038-089-210600-
   NORTHEAST OHIO

CITY           SKY/WX    TMP DP  RH WIND       PRES   REMARKS
CLE-HOPKINS    FAIR      53  41  63 S6        30.22S
CLE-LAKEFRONT  FAIR      59  40  49 SE9       30.19R
CUY CO. ARPT   NOT AVBL
LORAIN-ELYRIA  FAIR      49  38  65 S5        30.21S
ASHTABULA      FAIR      52  39  61 S7        30.24R
AKRON-CANTON   FAIR      52  40  63 S8        30.23S
WOOSTER        NOT AVBL
MANSFIELD      FAIR      55  40  56 S9        30.22S
YOUNGSTOWN     FAIR      56  37  49 S6        30.24S
$$

OHZ042-051>053-060>062-070>072-077>081-210600-
  SOUTHWEST OHIO

CITY           SKY/WX    TMP DP  RH WIND       PRES   REMARKS
CINC-COVINGTON MOCLDY    56  54  93 CALM      30.20R
CINC-LUNKEN    FOG       50  50 100 CALM      30.21S VSB 1/4
HAMILTON       FAIR      48  47  96 CALM      30.21R FOG
DAYTON         NOT AVBL
WRIGHT-PAT AFB NOT AVBL
DAYTON GENERAL FAIR      57  50  77 S5        30.20S
WILMINGTON     FAIR      55  52  89 S5        30.21F
$$

OHZ036-037-039>041-045>050-054>059-063>069-073>076-082>088-210600-
  CENTRAL AND SOUTHEAST OHIO

CITY           SKY/WX    TMP DP  RH WIND       PRES   REMARKS
COLUMBUS       FAIR      55  44  66 CALM      30.21S
OSU AIRPORT    FAIR      56  44  64 CALM      30.21S
BOLTON FIELD   NOT AVBL
RICKENBACK AFB NOT AVBL
NEWARK         FAIR      45  42  89 CALM      30.22F
MARION         FAIR      52  39  61 S8        30.21S
LANCASTER      FAIR      44  42  93 S3        30.23S
ZANESVILLE     FAIR      47  42  83 CALM      30.23F
NEW PHILLY     FAIR      46  42  86 E3        30.25S
$$




USA.gov is the U.S. government's official web portal to all federal, state and local government web resources and services.